Location: Sorgues
(44.0084°N, 4.8749°E)
Time: 21:30:25
(UTC+00:00)

Daily predictions for brighter satellites

Satellite Brightness Start Highest point End
(mag) Time Altitude Azimuth Time Altitude Azimuth Time Altitude Azimuth
Cosmos 2369 Rocket 3.8 17:02:43 10° WSW 17:07:52 35° NW 17:13:05 10° N
Cosmos 1850 Rocket 4.0 17:03:03 10° NNW 17:08:21 70° ENE 17:13:39 10° SSE
Cosmos 1939 Rocket 3.7 17:06:12 10° SE 17:09:38 28° ENE 17:13:03 10° N
Cosmos 2297 Rocket 3.5 17:05:56 10° N 17:10:09 21° NE 17:14:21 10° E
NOAA 12 4.2 17:07:23 10° SSE 17:12:40 90° ENE 17:18:01 10° NNW
COSMO-SKYMED 1 3.3 17:10:55 10° NNE 17:14:50 32° E 17:18:43 10° SSE
Cosmos 1452 Rocket 3.8 17:09:56 10° SSW 17:15:12 77° WNW 17:20:30 10° NNE
Okean O Rocket 1.9 17:12:00 10° S 17:16:22 74° WSW 17:20:45 10° NNW
Aureole 3 Rocket 4.3 17:14:52 10° SE 17:17:32 19° E 17:20:44 10° NE
Cosmos 1689 Rocket 3.2 17:15:10 10° NE 17:17:34 23° E 17:19:57 10° SSE
H-2A R/B 3.5 17:16:03 10° ESE 17:19:39 19° ENE 17:23:19 10° NNE
H-2A R/B 3.6 17:18:24 10° N 17:22:17 38° WNW 17:26:06 10° SW
Cosmos 1328 3.7 17:18:37 10° N 17:22:35 79° E 17:26:32 10° S
Cosmos 2098 Rocket 4.1 17:21:29 10° NNW 17:24:24 34° W 17:27:04 10° SSW
IRS-1C Rocket 4.3 17:19:31 10° SE 17:24:34 50° ENE 17:29:39 10° N
Cosmos 1356 Rocket 4.4 17:21:28 10° SSW 17:25:37 54° WNW 17:29:52 10° N
CORIOLIS 4.4 17:20:31 10° S 17:25:51 77° WSW 17:31:14 10° NNW
ADEOS Rocket 4.0 17:20:23 10° N 17:26:30 55° WNW 17:33:15 10° SW
Cosmos 1340 4.1 17:24:15 10° NNE 17:26:56 18° ENE 17:29:36 10° ESE
CZ-4 R/B 2.4 17:24:10 10° ESE 17:27:22 24° ENE 17:30:33 10° NNE
Cosmos 1825 Rocket 3.6 17:24:30 10° N 17:28:56 61° E 17:33:18 10° SSE
ERS-2 2.5 17:25:59 10° N 17:29:36 67° WNW 17:33:13 10° SSW
YAOGAN 1 3.6 17:27:37 10° ESE 17:31:11 26° ENE 17:34:45 10° NNE
USA 281 3.9 17:25:28 10° S 17:31:54 59° WSW 17:38:24 10° NNW
Lacrosse 5 3.6 17:29:40 10° WNW 17:33:49 25° NNW 17:37:58 10° NE
Cosmos 2219 4.0 17:30:45 10° N 17:35:54 32° NE 17:41:01 10° ESE
Meteor 2-21 Rocket 4.4 17:30:31 10° N 17:36:41 65° E 17:42:45 10° SSE
CZ-4B R/B 2.3 17:37:47 10° N 17:40:57 49° WNW 17:44:02 10° SSW
Cosmos 1400 Rocket 3.5 17:37:44 10° SSE 17:41:24 32° E 17:45:06 10° NNE
SAR-Lupe-4 3.5 17:37:52 10° NNE 17:41:29 88° ESE 17:45:04 10° SSW
Cosmos 44 3.4 17:38:49 10° SSW 17:43:05 49° ESE 17:47:37 10° NE
Cosmos 1726 Rocket 3.5 17:40:07 10° S 17:44:23 63° E 17:48:43 10° NNE
Okean-O 2.9 17:40:11 10° SE 17:44:23 44° ENE 17:48:37 10° N
Cosmos 1758 Rocket 4.0 17:41:48 10° NNW 17:46:12 66° W 17:50:30 10° S
Aureole 3 2.9 17:53:58 10° S 17:57:16 48° E 18:00:13 10° NNE
Cosmos 1606 Rocket 3.8 17:54:27 10° SSW 17:58:47 71° W 18:03:11 10° N
Cosmos 1331 Rocket 4.0 17:53:40 10° SSW 17:58:49 81° WNW 18:04:01 10° NNE
FALCON 9 DEB 3.3 17:55:52 10° SSW 17:58:58 45° SE 17:59:55 33° E
Nadezhda 2 Rocket 4.5 17:56:24 10° N 18:02:50 81° E 18:09:16 10° S
SKYMED 2 3.7 17:58:40 10° N 18:03:01 78° WNW 18:07:21 10° SSW
Cosmos 2228 3.6 17:58:56 10° SSW 18:03:06 59° W 18:07:20 10° N
GENESIS II 4.3 17:59:34 10° SW 18:03:36 78° NW 18:07:02 14° NNE
ATLAS 5 CENTAUR R/B 4.3 18:02:40 10° NW 18:04:37 12° NNW 18:06:40 10° N
SL-4 R/B 3.3 18:03:24 10° WNW 18:06:25 25° N 18:08:01 19° NNE
FALCON 9 DEB 3.0 18:03:24 10° SW 18:06:33 57° SE 18:07:15 44° E
CZ-2C R/B 3.3 18:01:22 10° SSE 18:07:05 61° ENE 18:12:43 10° N
Cosmos 1244 Rocket 4.4 18:01:01 10° N 18:07:15 79° E 18:13:30 10° S
Cosmos 292 Rocket 3.8 18:03:12 10° SSW 18:07:59 87° WNW 18:12:50 10° NNE
ARGOS 3.7 18:09:08 21° ESE 18:12:01 36° ENE 18:16:56 10° N
Cosmos 1346 Rocket 3.8 18:10:05 10° N 18:12:50 28° NE 18:12:50 28° NE
Cosmos 2227 Rocket 2.5 18:08:52 10° NNW 18:14:20 46° ENE 18:17:08 26° ESE
FALCON 9 DEB 2.9 18:11:23 10° SW 18:14:35 64° SE 18:15:00 56° E
Meteor 2-10 Rocket 3.9 18:09:41 10° SSE 18:14:42 41° E 18:19:33 10° NNE
SeaSat 1 2.9 18:14:54 30° E 18:16:38 41° NE 18:21:16 10° NNW
Cosmos 1892 2.8 18:14:40 10° N 18:18:27 49° ENE 18:19:18 41° ESE
CZ-2D R/B 3.7 18:15:04 10° S 18:18:51 61° W 18:22:38 10° NNW
USA 215 4.0 18:17:28 24° ENE 18:20:36 38° NNE 18:26:32 10° NW
Cosmos 1656 3.7 18:16:16 10° S 18:21:40 57° ESE 18:26:21 14° NE
Cosmos 2263 Rocket 4.2 18:22:25 10° NNE 18:24:14 12° NNE 18:24:14 12° NNE
CSL-04 Rocket 3.7 18:19:21 10° SSE 18:24:50 63° ENE 18:30:18 10° N
Cosmos 968 Rocket 3.6 18:20:16 10° N 18:25:22 49° ENE 18:26:57 37° ESE
Cosmos 2058 Rocket 3.2 18:20:54 10° SSW 18:25:22 76° W 18:29:54 10° N
ATLAS 2AS CENTAUR R/B 4.2 18:19:36 10° NNW 18:25:25 23° NNE 18:27:53 19° NE
Cosmos 1302 Rocket 4.0 18:22:03 10° SSW 18:27:19 88° WNW 18:32:39 10° NNE
FALCON 9 DEB 2.9 18:26:05 10° SW 18:29:11 81° WSW 18:29:11 81° WSW
Cosmos 1300 4.3 18:26:21 10° SW 18:29:52 35° WNW 18:33:25 10° N
Cosmos 1486 Rocket 4.0 18:26:34 10° NNW 18:31:52 59° ENE 18:33:47 37° SE
USA 307 4.2 18:28:56 10° NW 18:32:37 27° NNE 18:32:53 27° NNE
Cosmos 1697 Rocket 3.2 18:28:22 10° S 18:32:53 37° ESE 18:32:53 37° ESE
Helios 1A Rocket 4.2 18:32:43 10° S 18:36:38 42° W 18:40:34 10° NNW
USA 308 4.1 18:33:41 10° NW 18:37:24 28° NNE 18:37:27 28° NNE
GEOS 3 Rocket 3.6 18:36:45 28° SE 18:39:40 86° SW 18:45:06 10° NW
S3M 3.8 18:36:24 10° S 18:42:28 74° E 18:48:37 10° NNE
DMSP B5D1-3 4.5 18:38:37 10° NNE 18:43:48 88° WNW 18:48:57 10° SSW
CRYOSAT 2 4.2 18:40:32 10° N 18:45:26 82° E 18:50:17 10° S
Milstar 3 4.2 18:45:01 10° SW 18:50:06 23° S 18:51:54 21° SSE
Cosmos 2297 Rocket 2.3 18:49:09 10° NNW 18:54:49 74° WSW 18:57:46 29° S
H-2A R/B 2.3 18:53:07 10° S 18:58:28 71° WSW 19:03:56 10° NNW
Cosmos 2058 3.4 18:54:48 10° NNW 18:57:58 51° NNW 18:57:58 51° NNW
MOS 1 Rocket 3.6 18:54:48 10° N 18:59:22 67° WNW 19:04:13 10° SSW
CZ-4 R/B 3.4 18:59:00 10° SSW 19:02:19 26° W 19:05:38 10° NW
Cosmos 1340 4.5 18:59:15 10° NNW 19:02:36 31° W 19:05:56 10° SSW
YAOGAN 1 4.3 19:03:19 10° SSW 19:07:09 31° W 19:11:02 10° NNW
Cosmos 1992 Rocket 4.1 19:04:55 10° SSW 19:09:12 62° SSW 19:09:12 62° SSW
Ariane Rocket 4.2 19:18:51 32° N 19:18:51 32° N 19:21:35 10° N
Lacrosse 5 3.8 19:14:45 10° NW 19:18:09 19° N 19:18:09 19° N
Cosmos 2219 4.2 19:14:45 10° NW 19:20:10 43° WSW 19:23:22 23° SSW
BREEZE-M R/B 4.3 19:17:54 10° WNW 19:22:45 62° NNE 19:23:15 61° NE
Cosmos 2082 4.0 19:25:29 10° NNW 19:30:17 63° NW 19:30:17 63° NW
Atlas Centaur 2 4.1 19:25:01 10° SW 19:31:14 28° S 19:31:14 28° S
CZ-4C R/B 4.1 19:32:39 10° NNW 19:37:16 25° NNE 19:37:16 25° NNE
SeaSat 1 4.2 19:54:42 29° W 19:54:42 29° W 19:58:32 10° NW
NOSS 3-4 (A) 4.5 19:48:50 10° NNW 19:53:45 44° N 19:53:45 44° N
NOSS 3-4 (C) 4.5 19:48:57 10° NNW 19:53:51 44° N 19:53:51 44° N
Cosmos 2227 Rocket 3.9 19:53:24 10° NW 19:58:06 28° WSW 19:59:01 26° WSW
USA 215 3.7 20:04:50 55° NW 20:04:50 55° NW 20:09:45 10° NW
Cosmos 2263 Rocket 4.3 20:04:18 10° NNW 20:05:56 19° NNW 20:05:56 19° NNW
ATLAS 2AS CENTAUR R/B 3.8 20:10:37 10° NNW 20:15:19 39° NNW 20:15:19 39° NNW
